Regional Weather Roundup
Issued by NWS

Home | Current Version | Previous Version | Graphics & Text | Print | Product List | Glossary On
Versions: 1 2 3 4 5 6 7 8 9 10 11 12 13 14 15 16 17 18 19 20 21 22 23 24 25 26 27 28 29 30 31 32 33 34 35 36 37 38 39 40 41 42 43 44 45 46 47 48 49 50
000
ASUS43 KDTX 032010
RWRMI
MICHIGAN HOURLY REGIONAL WEATHER ROUNDUP
NATIONAL WEATHER SERVICE DETROIT/PONTIAC MI
400 PM EDT THU SEP 03 2015

NOTE: "FAIR" INDICATES FEW OR NO CLOUDS BELOW 12,000 FEET WITH NO
SIGNIFICANT WEATHER AND/OR OBSTRUCTION TO VISIBILITY.

MIZ047>049-052>055-059>063-066>070-074>076-081>083-032100-
SOUTHEAST LOWER MICHIGAN

CITY           SKY/WX    TMP DP  RH WIND       PRES   REMARKS
ADRIAN         PTSUNNY   90  64  42 W12G21    29.92F HX  91
ALMA           HVY RAIN  74  71  89 E7        29.90F VSB 1
ANN ARBOR      CLOUDY    85  70  60 NE7       29.92F
BAD AXE        CLOUDY    71  68  90 CALM      29.95F
CARO           RAIN      67  67  99 E8        29.94F
DETROIT CITY   LGT RAIN  69  65  86 NE10      29.95F
DETROIT        CLOUDY    77  68  73 N8        29.93F
FLINT          CLOUDY    73  67  81 E10       29.94F
GROSSE ILE     LGT RAIN  79  73  83 SE3       29.93R VSB 1/2
HILLSDALE      MOSUNNY   88  67  49 SW10G16   29.94F HX  91
HOWELL         CLOUDY    79  70  74 E8        29.94S

CITY           SKY/WX    TMP DP  RH WIND       PRES   REMARKS
JACKSON        PTSUNNY   85  69  58 SW9       29.91F
LAMBERTVILLE   PTSUNNY   89  65  45 W8        29.92F HX  91
LANSING        CLOUDY    79  72  79 S7        29.90F
LAPEER         LGT RAIN  68  68  98 SE5       29.97F
MASON          CLOUDY    82  69  64 CALM      29.91F
MONROE         CLOUDY    88  67  49 SW10      29.90F HX  91
MT. CLEMENS    TSTM      68  66  95 E7        29.95F
PONTIAC        LGT RAIN  70  67  90 E7        29.95F
PORT HOPE        N/A     70  68  93 W5        29.93F
PORT HURON     LGT RAIN  66  66 100 CALM      29.98F
TRI CITIES     LGT RAIN  69  66  90 E9        29.91F FOG
MIDLAND        RAIN      68  67  96 E3        29.91F
TROY           LGT RAIN  69  67  94 NE8       29.98F
SAGINAW HB     HVY RAIN  68  66  94 NE8       29.93R
$$
MIZ043>046-050>051-056>058-064>065-071>073-077>080-032100-
SOUTHWEST LOWER MICHIGAN

CITY           SKY/WX    TMP DP  RH WIND       PRES   REMARKS
BATTLE CREEK   PTSUNNY   87  69  54 SW17G24   29.90F HX  91
BENTON HARBOR  SUNNY     87  69  54 SW16      29.90F HX  91
BIG RAPIDS     PTSUNNY   80  72  77 W7        29.88F
COLDWATER      MOSUNNY   89  65  44 SW12G18   29.92F HX  90
FREMONT        CLOUDY    76  72  87 NW12      29.89S
HOLLAND        MOSUNNY   80  71  74 W10       29.91F
GRAND RAPIDS   PTSUNNY   82  74  76 W14       29.89F
IONIA          FAIR      76  71  83 S6        29.89S
KALAMAZOO      MOSUNNY   87  68  52 W14       29.90F HX  90
LUDINGTON      CLOUDY    71  68  90 W3        29.91S FOG
MARSHALL       PTSUNNY   87  68  53 SW12G21   29.90F HX  90
MOUNT PLEASANT HVY RAIN  71  69  93 E3        29.89F VSB 3/4
MUSKEGON       CLOUDY    78  68  71 W9        29.90F
SOUTH HAVEN    MOSUNNY   84  67  56 W12       29.90F
$$
MIZ016>042-032100-
NORTHERN LOWER MICHIGAN

CITY           SKY/WX    TMP DP  RH WIND       PRES   REMARKS
ALPENA         CLOUDY    69  67  93 SE6       29.96F
BEAVER ISLAND  PTSUNNY   71  64  78 NE7       29.96S
BELLAIRE       CLOUDY    73  65  78 SE5       29.92S
CADILLAC       PTSUNNY   74  69  83 E3        29.91F
CHARLEVOIX     CLOUDY    73  66  77 NE5       29.95F
FRANKFORT      FOG       68  68  98 NW3       29.90S VSB 1/2
GAYLORD        CLOUDY    69  66  90 E7        29.95S
GRAYLING       RAIN      66  65  97 E6        29.94F
HARBOR SPRINGS PTSUNNY   72  67  82 E5        29.94S
HOUGHTON LAKE  CLOUDY    68  66  93 SE6       29.93F
MANISTEE       CLOUDY    70  64  83 W5        29.91S
OSCODA         LGT RAIN  70  68  93 SE3       29.94F
PELLSTON       PTSUNNY   73  67  81 NE8       29.95F
ROGERS CITY    CLOUDY    71  66  84 S6        29.97S
TRAVERSE CITY  LGT RAIN  71  68  90 NE6       29.90F FOG
$$
MIZ007>008-015-032100-
EASTERN UPPER MICHIGAN

CITY           SKY/WX    TMP DP  RH WIND       PRES   REMARKS
KINROSS        PTSUNNY   79  63  57 E7        29.98S
MACKINAC ISLAN CLOUDY    72  60  67 E9G16     29.97S
NEWBERRY       MOSUNNY   81  63  53 E13G18    29.97S
S. S. MARIE    CLOUDY    79  62  56 VRB6      29.98R
MUNISING         N/A     71  64  78 NE6       29.96F
$$
MIZ004>006-011>014-085-032100-
CENTRAL UPPER MICHIGAN

CITY           SKY/WX    TMP DP  RH WIND       PRES   REMARKS
MANISTIQUE     SUNNY     78  65  63 E8        29.95S
ESCANABA       MOSUNNY   79  64  61 SE7       29.92F
MENOMINEE      SUNNY     73  64  73 E12       29.93F
SAWYER-GWINN   MOSUNNY   75  63  64 NE10      29.99S
$$
MIZ001>003-009>011-084-032100-
WESTERN UPPER MICHIGAN

CITY           SKY/WX    TMP DP  RH WIND       PRES   REMARKS
IRON MOUNTAIN  PTSUNNY   78  64  61 NE7       29.96F
HOUGHTON       SUNNY     77  54  44 NE7       30.00R
COPPER HARBOR    N/A     64  59  83 E6        30.01R
IRONWOOD       SUNNY     77  66  69 NE9       29.95S
$$

ABBREVIATIONS USED IN REMARKS
   TC - TEMPERATURE IN CELSIUS
  WCI - WIND CHILL INDEX
   HX - HEAT INDEX
  VSB - VISIBILITY




USA.gov is the U.S. government's official web portal to all federal, state and local government web resources and services.